| time (UTC) | temp F | wind direction | speed MPH | gust MPH | rain 1hr in | rain 24hr in | rain mn in | humidity % | barometer mb |
| 20260506123438 | 52 | 292 | 1.0 | 2.0 | 0.00 | 0.00 | 0.00 | 97 | 1359.9 |
| 20260506122934 | 52 | 280 | 2.0 | 2.0 | 0.00 | 0.00 | 0.00 | 97 | 1360.1 |
| 20260506122431 | 52 | 263 | 2.0 | 2.0 | 0.00 | 0.00 | 0.00 | 97 | 1360.1 |
| 20260506121930 | 52 | 287 | 2.0 | 3.0 | 0.00 | 0.00 | 0.00 | 97 | 1360.3 |
| 20260506121426 | 52 | 267 | 3.0 | 3.0 | 0.00 | 0.00 | 0.00 | 97 | 1360.0 |
| 20260506120923 | 52 | 287 | 2.0 | 3.0 | 0.00 | 0.00 | 0.00 | 96 | 1360.0 |
| 20260506120420 | 52 | 277 | 1.0 | 2.0 | 0.00 | 0.00 | 0.00 | 96 | 1359.7 |
| 20260506115917 | 52 | 272 | 2.0 | 2.0 | 0.00 | 0.00 | 0.00 | 96 | 1360.0 |
| 20260506115415 | 52 | 271 | 0.0 | 2.0 | 0.00 | 0.00 | 0.00 | 97 | 1359.9 |
| 20260506114914 | 52 | 312 | 1.0 | 2.0 | 0.00 | 0.00 | 0.00 | 96 | 1360.1 |
| 20260506114411 | 52 | 345 | 2.0 | 2.0 | 0.00 | 0.00 | 0.00 | 96 | 1360.0 |
| 20260506113910 | 52 | 267 | 2.0 | 2.0 | 0.00 | 0.00 | 0.00 | 96 | 1359.9 |
| 20260506113407 | 52 | 267 | 1.0 | 2.0 | 0.00 | 0.00 | 0.00 | 96 | 1360.0 |
| 20260506112903 | 52 | 291 | 1.0 | 2.0 | 0.00 | 0.00 | 0.00 | 96 | 1360.0 |
| 20260506112401 | 52 | 342 | 1.0 | 2.0 | 0.00 | 0.00 | 0.00 | 96 | 1359.7 |
| 20260506111858 | 52 | 291 | 1.0 | 2.0 | 0.00 | 0.00 | 0.00 | 96 | 1359.9 |
| 20260506111356 | 52 | 232 | 0.0 | 5.0 | 0.00 | 0.00 | 0.00 | 96 | 1359.7 |
| 20260506110853 | 52 | 265 | 2.0 | 2.0 | 0.00 | 0.00 | 0.00 | 96 | 1359.6 |
| 20260506110350 | 52 | 281 | 1.0 | 2.0 | 0.00 | 0.00 | 0.00 | 95 | 1359.6 |
| 20260506105847 | 52 | 272 | 2.0 | 3.0 | 0.00 | 0.00 | 0.00 | 95 | 1359.7 |
| 20260506105343 | 52 | 241 | 0.0 | 2.0 | 0.00 | 0.00 | 0.00 | 96 | 1359.6 |
| 20260506104841 | 52 | 261 | 1.0 | 3.0 | 0.00 | 0.00 | 0.00 | 96 | 1359.5 |
| 20260506104338 | 52 | 281 | 2.0 | 2.0 | 0.00 | 0.00 | 0.00 | 95 | 1359.6 |
| 20260506103836 | 52 | 269 | 3.0 | 3.0 | 0.00 | 0.00 | 0.00 | 95 | 1359.5 |
| 20260506103333 | 52 | 284 | 3.0 | 5.0 | 0.00 | 0.00 | 0.00 | 95 | 1359.3 |
| 20260506102831 | 52 | 321 | 2.0 | 2.0 | 0.00 | 0.00 | 0.00 | 95 | 1359.3 |
| 20260506102328 | 52 | 272 | 2.0 | 3.0 | 0.00 | 0.00 | 0.00 | 95 | 1359.5 |
| 20260506101825 | 52 | 279 | 1.0 | 3.0 | 0.00 | 0.00 | 0.00 | 95 | 1359.1 |
| 20260506101321 | 52 | 308 | 2.0 | 2.0 | 0.00 | 0.00 | 0.00 | 96 | 1359.1 |
| 20260506100820 | 52 | 335 | 2.0 | 3.0 | 0.00 | 0.00 | 0.00 | 96 | 1359.1 |
| 20260506100318 | 52 | 319 | 2.0 | 2.0 | 0.00 | 0.00 | 0.00 | 96 | 1358.8 |
| 20260506095816 | 52 | 279 | 0.0 | 2.0 | 0.00 | 0.00 | 0.00 | 96 | 1359.0 |
| 20260506095312 | 52 | 316 | 1.0 | 3.0 | 0.00 | 0.00 | 0.00 | 96 | 1359.0 |
| 20260506094809 | 52 | 309 | 0.0 | 1.0 | 0.00 | 0.00 | 0.00 | 95 | 1359.1 |
| 20260506094308 | 52 | 285 | 0.0 | 2.0 | 0.00 | 0.00 | 0.00 | 95 | 1359.1 |
| 20260506093806 | 52 | 277 | 1.0 | 2.0 | 0.00 | 0.00 | 0.00 | 95 | 1359.0 |
| 20260506093302 | 52 | 234 | 1.0 | 2.0 | 0.00 | 0.00 | 0.00 | 94 | 1359.0 |
| 20260506092801 | 52 | 223 | 0.0 | 3.0 | 0.00 | 0.00 | 0.00 | 95 | 1358.8 |
| 20260506092258 | 52 | 267 | 2.0 | 2.0 | 0.00 | 0.00 | 0.00 | 95 | 1358.8 |
| 20260506091755 | 52 | 265 | 1.0 | 3.0 | 0.00 | 0.00 | 0.00 | 95 | 1359.0 |
| 20260506091252 | 52 | 256 | 2.0 | 4.0 | 0.00 | 0.00 | 0.00 | 95 | 1359.1 |
| 20260506090750 | 52 | 268 | 2.0 | 3.0 | 0.00 | 0.00 | 0.00 | 95 | 1359.0 |
| 20260506090247 | 52 | 254 | 2.0 | 4.0 | 0.00 | 0.00 | 0.00 | 95 | 1358.8 |
| 20260506085744 | 52 | 236 | 2.0 | 4.0 | 0.00 | 0.00 | 0.00 | 95 | 1359.1 |
| 20260506085240 | 52 | 251 | 2.0 | 4.0 | 0.00 | 0.00 | 0.00 | 95 | 1359.2 |
| 20260506084736 | 52 | 267 | 3.0 | 4.0 | 0.00 | 0.00 | 0.00 | 95 | 1359.2 |
| 20260506084233 | 52 | 247 | 2.0 | 4.0 | 0.00 | 0.00 | 0.00 | 95 | 1359.1 |
| 20260506083730 | 52 | 256 | 4.0 | 4.0 | 0.00 | 0.00 | 0.00 | 95 | 1359.2 |
| 20260506083228 | 52 | 245 | 4.0 | 4.0 | 0.00 | 0.00 | 0.00 | 95 | 1359.3 |
| 20260506082725 | 52 | 262 | 2.0 | 2.0 | 0.00 | 0.00 | 0.00 | 95 | 1359.0 |
| 20260506082220 | 52 | 254 | 2.0 | 2.0 | 0.00 | 0.00 | 0.00 | 94 | 1359.2 |
| 20260506081718 | 52 | 254 | 1.0 | 2.0 | 0.00 | 0.00 | 0.00 | 94 | 1359.2 |
| 20260506081216 | 52 | 249 | 2.0 | 3.0 | 0.00 | 0.00 | 0.00 | 94 | 1359.0 |
| 20260506080714 | 52 | 244 | 2.0 | 3.0 | 0.00 | 0.00 | 0.00 | 94 | 1359.2 |
| 20260506080210 | 52 | 267 | 2.0 | 3.0 | 0.00 | 0.00 | 0.00 | 95 | 1359.1 |
| 20260506073154 | 53 | 306 | 0.0 | 3.0 | 0.00 | 0.00 | 0.00 | 94 | 1359.0 |
| 20260506072650 | 53 | 276 | 1.0 | 2.0 | 0.00 | 0.00 | 0.00 | 94 | 1358.7 |
| 20260506072148 | 53 | 292 | 2.0 | 2.0 | 0.00 | 0.00 | 0.00 | 94 | 1358.6 |
| 20260506071646 | 53 | 235 | 0.0 | 4.0 | 0.00 | 0.00 | 0.00 | 94 | 1358.7 |
| 20260506071143 | 53 | 255 | 1.0 | 2.0 | 0.00 | 0.00 | 0.00 | 94 | 1358.7 |
| 20260506070640 | 53 | 250 | 0.0 | 2.0 | 0.00 | 0.00 | 0.00 | 94 | 1358.7 |
| 20260506070137 | 53 | 299 | 2.0 | 3.0 | 0.00 | 0.00 | 0.00 | 94 | 1358.6 |
| 20260506062114 | 53 | 308 | 2.0 | 4.0 | 0.00 | 0.07 | 0.07 | 94 | 1358.2 |
| 20260506061610 | 53 | 347 | 3.0 | 4.0 | 0.00 | 0.07 | 0.07 | 94 | 1358.3 |
| 20260506061108 | 53 | 333 | 3.0 | 3.0 | 0.00 | 0.07 | 0.07 | 94 | 1358.2 |
| 20260506060606 | 53 | 338 | 2.0 | 3.0 | 0.00 | 0.07 | 0.07 | 93 | 1358.2 |
| 20260506051035 | 53 | 255 | 2.0 | 3.0 | 0.00 | 0.07 | 0.07 | 92 | 1357.8 |
| 20260506050533 | 53 | 251 | 2.0 | 2.0 | 0.00 | 0.07 | 0.07 | 91 | 1357.5 |
| 20260506045023 | 53 | 245 | 3.0 | 4.0 | 0.00 | 0.07 | 0.07 | 90 | 1357.7 |
| 20260506044521 | 54 | 250 | 2.0 | 4.0 | 0.00 | 0.07 | 0.07 | 90 | 1357.4 |
| 20260506044018 | 54 | 250 | 2.0 | 3.0 | 0.00 | 0.07 | 0.07 | 90 | 1357.4 |
| 20260506043515 | 54 | 267 | 2.0 | 2.0 | 0.00 | 0.07 | 0.07 | 90 | 1357.3 |
| 20260506043013 | 53 | 180 | 0.0 | 4.0 | 0.00 | 0.07 | 0.07 | 89 | 1357.4 |
| 20260506042512 | 54 | 230 | 0.0 | 2.0 | 0.00 | 0.07 | 0.07 | 89 | 1357.4 |
| 20260506042010 | 54 | 135 | 2.0 | 4.0 | 0.00 | 0.07 | 0.07 | 88 | 1357.1 |
| 20260506041508 | 54 | 282 | 1.0 | 4.0 | 0.00 | 0.07 | 0.07 | 89 | 1357.0 |
| 20260506041004 | 54 | 322 | 1.0 | 2.0 | 0.00 | 0.07 | 0.07 | 89 | 1356.8 |
| 20260506040502 | 54 | 31 | 3.0 | 3.0 | 0.00 | 0.07 | 0.07 | 88 | 1356.9 |
| 20260506035958 | 54 | 17 | 2.0 | 4.0 | 0.00 | 0.07 | 0.07 | 89 | 1356.8 |
| 20260506035455 | 54 | 316 | 0.0 | 3.0 | 0.00 | 0.07 | 0.07 | 88 | 1356.8 |
| 20260506034951 | 54 | 305 | 1.0 | 3.0 | 0.00 | 0.07 | 0.07 | 88 | 1356.9 |
| 20260506034449 | 54 | 348 | 2.0 | 5.0 | 0.00 | 0.07 | 0.07 | 88 | 1356.4 |
| 20260506033946 | 54 | 347 | 3.0 | 4.0 | 0.00 | 0.07 | 0.07 | 88 | 1356.5 |
| 20260506033444 | 54 | 349 | 2.0 | 3.0 | 0.00 | 0.07 | 0.07 | 88 | 1356.1 |
| 20260506032940 | 54 | 0 | 3.0 | 3.0 | 0.00 | 0.07 | 0.07 | 87 | 1356.2 |
| 20260506032437 | 55 | 5 | 3.0 | 3.0 | 0.00 | 0.07 | 0.07 | 88 | 1356.4 |
| 20260506031933 | 55 | 296 | 1.0 | 6.0 | 0.00 | 0.07 | 0.07 | 87 | 1356.0 |
| 20260506031431 | 55 | 1 | 1.0 | 3.0 | 0.00 | 0.07 | 0.07 | 87 | 1356.1 |
| 20260506030929 | 55 | 271 | 0.0 | 2.0 | 0.00 | 0.07 | 0.07 | 87 | 1356.0 |
| 20260506030427 | 55 | 167 | 2.0 | 2.0 | 0.00 | 0.07 | 0.07 | 87 | 1355.8 |
| 20260506025923 | 55 | 289 | 1.0 | 2.0 | 0.00 | 0.07 | 0.07 | 86 | 1355.8 |
| 20260506025420 | 55 | 263 | 1.0 | 2.0 | 0.00 | 0.07 | 0.07 | 86 | 1355.6 |
| 20260506024917 | 56 | 250 | 0.0 | 2.0 | 0.00 | 0.07 | 0.07 | 86 | 1355.6 |
| 20260506024414 | 56 | 186 | 0.0 | 2.0 | 0.00 | 0.07 | 0.07 | 85 | 1355.5 |
| 20260506023909 | 56 | 54 | 1.0 | 3.0 | 0.00 | 0.07 | 0.07 | 84 | 1355.3 |
| 20260506023407 | 56 | 156 | 2.0 | 3.0 | 0.00 | 0.07 | 0.07 | 84 | 1355.3 |
| 20260506022903 | 57 | 347 | 2.0 | 3.0 | 0.00 | 0.07 | 0.07 | 83 | 1355.6 |
| 20260506022401 | 57 | 28 | 2.0 | 2.0 | 0.00 | 0.07 | 0.07 | 84 | 1355.5 |
| 20260506021859 | 57 | 49 | 1.0 | 3.0 | 0.00 | 0.07 | 0.07 | 84 | 1355.3 |
| 20260506021355 | 57 | 131 | 3.0 | 3.0 | 0.00 | 0.07 | 0.07 | 84 | 1355.3 |
| 20260506020852 | 58 | 22 | 1.0 | 3.0 | 0.00 | 0.07 | 0.07 | 83 | 1355.1 |
| 20260506020350 | 58 | 359 | 2.0 | 3.0 | 0.00 | 0.07 | 0.07 | 84 | 1355.5 |
| 20260506015847 | 58 | 276 | 0.0 | 2.0 | 0.00 | 0.07 | 0.07 | 84 | 1355.2 |
| 20260506015345 | 58 | 26 | 2.0 | 5.0 | 0.00 | 0.07 | 0.07 | 82 | 1355.1 |
| 20260506014842 | 59 | 290 | 0.0 | 3.0 | 0.00 | 0.07 | 0.07 | 81 | 1355.1 |
| 20260506014338 | 59 | 327 | 4.0 | 4.0 | 0.00 | 0.07 | 0.07 | 81 | 1354.8 |
| 20260506013835 | 59 | 323 | 2.0 | 3.0 | 0.00 | 0.07 | 0.07 | 81 | 1354.9 |
| 20260506013333 | 59 | 161 | 0.0 | 2.0 | 0.00 | 0.07 | 0.07 | 81 | 1355.1 |
| 20260506012829 | 59 | 8 | 3.0 | 5.0 | 0.00 | 0.07 | 0.07 | 80 | 1354.9 |
| 20260506012326 | 60 | 31 | 2.0 | 3.0 | 0.00 | 0.07 | 0.07 | 81 | 1354.9 |
| 20260506011823 | 60 | 327 | 2.0 | 3.0 | 0.00 | 0.07 | 0.07 | 79 | 1354.7 |
| 20260506011320 | 59 | 317 | 4.0 | 7.0 | 0.00 | 0.07 | 0.07 | 80 | 1354.9 |
| 20260506010817 | 59 | 341 | 3.0 | 4.0 | 0.00 | 0.07 | 0.07 | 80 | 1354.5 |
| 20260506010315 | 59 | 299 | 3.0 | 9.0 | 0.00 | 0.07 | 0.07 | 79 | 1354.9 |
| 20260506005812 | 60 | 337 | 0.0 | 3.0 | 0.00 | 0.07 | 0.07 | 81 | 1354.7 |
| 20260506005309 | 59 | 282 | 2.0 | 3.0 | 0.00 | 0.07 | 0.07 | 81 | 1354.9 |
| 20260506004805 | 59 | 317 | 5.0 | 5.0 | 0.00 | 0.07 | 0.07 | 81 | 1354.9 |
| 20260506004302 | 60 | 340 | 2.0 | 4.0 | 0.00 | 0.07 | 0.07 | 80 | 1354.9 |
| 20260506003758 | 60 | 330 | 2.0 | 4.0 | 0.00 | 0.07 | 0.07 | 81 | 1354.8 |
| 20260506003255 | 60 | 30 | 1.0 | 3.0 | 0.00 | 0.07 | 0.07 | 81 | 1354.9 |
| 20260506002751 | 60 | 271 | 6.0 | 8.0 | 0.00 | 0.07 | 0.07 | 79 | 1354.7 |
| 20260506002247 | 60 | 263 | 3.0 | 8.0 | 0.00 | 0.07 | 0.07 | 80 | 1354.7 |
| 20260506001743 | 60 | 353 | 2.0 | 4.0 | 0.00 | 0.07 | 0.07 | 80 | 1354.5 |
| 20260506001241 | 61 | 316 | 3.0 | 4.0 | 0.00 | 0.07 | 0.07 | 81 | 1354.4 |
| 20260506000738 | 61 | 255 | 0.0 | 3.0 | 0.00 | 0.07 | 0.07 | 82 | 1354.4 |
| 20260506000235 | 61 | 153 | 1.0 | 6.0 | 0.00 | 0.07 | 0.07 | 81 | 1354.4 |
| 20260505235732 | 61 | 139 | 2.0 | 4.0 | 0.00 | 0.07 | 0.07 | 81 | 1354.2 |
| 20260505235230 | 61 | 230 | 2.0 | 4.0 | 0.00 | 0.07 | 0.07 | 81 | 1354.7 |
| 20260505234726 | 60 | 260 | 0.0 | 6.0 | 0.00 | 0.07 | 0.07 | 80 | 1354.4 |
| 20260505234224 | 61 | 353 | 2.0 | 4.0 | 0.00 | 0.07 | 0.07 | 81 | 1354.4 |
| 20260505233720 | 61 | 338 | 4.0 | 9.0 | 0.00 | 0.07 | 0.07 | 81 | 1354.4 |
| 20260505233218 | 61 | 40 | 3.0 | 4.0 | 0.00 | 0.07 | 0.07 | 81 | 1354.4 |
| 20260505232715 | 61 | 191 | 2.0 | 3.0 | 0.00 | 0.07 | 0.07 | 81 | 1354.7 |
| 20260505232213 | 61 | 2 | 1.0 | 2.0 | 0.00 | 0.07 | 0.07 | 80 | 1354.7 |
| 20260505231709 | 60 | 291 | 5.0 | 7.0 | 0.00 | 0.07 | 0.07 | 78 | 1354.8 |
| 20260505231208 | 60 | 333 | 2.0 | 4.0 | 0.00 | 0.07 | 0.07 | 78 | 1354.5 |
| 20260505230706 | 61 | 308 | 5.0 | 6.0 | 0.00 | 0.07 | 0.07 | 79 | 1354.8 |
| 20260505230202 | 61 | 322 | 4.0 | 4.0 | 0.00 | 0.07 | 0.07 | 81 | 1354.9 |
| 20260505225659 | 61 | 291 | 2.0 | 4.0 | 0.00 | 0.07 | 0.07 | 79 | 1354.8 |
| 20260505225155 | 61 | 292 | 2.0 | 4.0 | 0.00 | 0.07 | 0.07 | 81 | 1354.8 |
| 20260505224651 | 61 | 314 | 6.0 | 6.0 | 0.00 | 0.07 | 0.07 | 79 | 1354.7 |
| 20260505224149 | 61 | 311 | 6.0 | 8.0 | 0.00 | 0.07 | 0.07 | 78 | 1354.5 |
| 20260505223646 | 61 | 318 | 3.0 | 5.0 | 0.00 | 0.07 | 0.07 | 79 | 1354.9 |
| 20260505223142 | 61 | 320 | 3.0 | 5.0 | 0.00 | 0.07 | 0.07 | 78 | 1354.7 |
| 20260505222638 | 62 | 335 | 5.0 | 6.0 | 0.00 | 0.07 | 0.07 | 76 | 1354.9 |
| 20260505222135 | 62 | 301 | 4.0 | 5.0 | 0.00 | 0.07 | 0.07 | 77 | 1354.8 |
| 20260505221632 | 62 | 287 | 4.0 | 5.0 | 0.00 | 0.07 | 0.07 | 75 | 1354.8 |
| 20260505221128 | 62 | 310 | 3.0 | 10.0 | 0.00 | 0.07 | 0.07 | 77 | 1355.1 |
| 20260505220626 | 62 | 13 | 3.0 | 8.0 | 0.00 | 0.07 | 0.07 | 79 | 1354.9 |
| 20260505220123 | 61 | 297 | 4.0 | 5.0 | 0.00 | 0.07 | 0.07 | 79 | 1355.2 |
| 20260505215621 | 60 | 275 | 6.0 | 6.0 | 0.00 | 0.07 | 0.07 | 81 | 1355.2 |
| 20260505215119 | 60 | 241 | 2.0 | 4.0 | 0.00 | 0.07 | 0.07 | 81 | 1355.1 |
| 20260505214617 | 60 | 292 | 2.0 | 7.0 | 0.00 | 0.07 | 0.07 | 81 | 1355.2 |
| 20260505214114 | 60 | 297 | 6.0 | 6.0 | 0.00 | 0.07 | 0.07 | 81 | 1355.2 |
| 20260505213611 | 60 | 287 | 3.0 | 5.0 | 0.00 | 0.07 | 0.07 | 83 | 1355.2 |
| 20260505213108 | 60 | 245 | 6.0 | 6.0 | 0.00 | 0.07 | 0.07 | 79 | 1355.5 |
| 20260505212604 | 60 | 336 | 2.0 | 4.0 | 0.00 | 0.07 | 0.07 | 81 | 1355.5 |
| 20260505212102 | 60 | 341 | 2.0 | 6.0 | 0.00 | 0.07 | 0.07 | 81 | 1355.6 |
| 20260505211558 | 60 | 45 | 2.0 | 3.0 | 0.00 | 0.07 | 0.07 | 80 | 1355.2 |
| 20260505211055 | 60 | 286 | 2.0 | 2.0 | 0.00 | 0.07 | 0.07 | 80 | 1355.3 |
| 20260505210551 | 60 | 344 | 5.0 | 5.0 | 0.00 | 0.07 | 0.07 | 81 | 1355.3 |
| 20260505210049 | 59 | 334 | 2.0 | 4.0 | 0.00 | 0.07 | 0.07 | 80 | 1355.5 |
| 20260505205547 | 59 | 287 | 5.0 | 6.0 | 0.00 | 0.07 | 0.07 | 81 | 1355.3 |
| 20260505205044 | 59 | 5 | 2.0 | 5.0 | 0.00 | 0.07 | 0.07 | 79 | 1355.6 |
| 20260505204541 | 59 | 310 | 0.0 | 3.0 | 0.00 | 0.07 | 0.07 | 83 | 1355.5 |
| 20260505204039 | 58 | 278 | 2.0 | 5.0 | 0.00 | 0.07 | 0.07 | 83 | 1355.6 |
| 20260505203535 | 58 | 342 | 2.0 | 5.0 | 0.00 | 0.07 | 0.07 | 85 | 1355.3 |
| 20260505203032 | 58 | 300 | 3.0 | 6.0 | 0.00 | 0.07 | 0.07 | 85 | 1355.5 |
| 20260505202528 | 58 | 331 | 2.0 | 6.0 | 0.00 | 0.07 | 0.07 | 85 | 1355.6 |
| 20260505202024 | 58 | 303 | 4.0 | 6.0 | 0.00 | 0.07 | 0.07 | 85 | 1355.6 |
| 20260505201522 | 58 | 302 | 6.0 | 6.0 | 0.00 | 0.07 | 0.07 | 84 | 1355.5 |
| 20260505201019 | 58 | 294 | 2.0 | 4.0 | 0.00 | 0.07 | 0.07 | 85 | 1355.6 |
| 20260505200517 | 58 | 311 | 5.0 | 6.0 | 0.00 | 0.07 | 0.07 | 84 | 1355.6 |
| 20260505200013 | 59 | 320 | 3.0 | 4.0 | 0.00 | 0.07 | 0.07 | 85 | 1355.6 |
| 20260505195509 | 59 | 328 | 4.0 | 6.0 | 0.00 | 0.07 | 0.07 | 86 | 1355.6 |
| 20260505195007 | 58 | 290 | 6.0 | 6.0 | 0.00 | 0.07 | 0.07 | 84 | 1355.5 |
| 20260505194504 | 58 | 292 | 4.0 | 4.0 | 0.00 | 0.07 | 0.07 | 84 | 1355.5 |
| 20260505194004 | 58 | 293 | 2.0 | 5.0 | 0.00 | 0.07 | 0.07 | 85 | 1355.3 |
| 20260505193502 | 58 | 2 | 2.0 | 5.0 | 0.00 | 0.07 | 0.07 | 84 | 1355.6 |
| 20260505192959 | 58 | 303 | 2.0 | 3.0 | 0.00 | 0.07 | 0.07 | 86 | 1355.3 |
| 20260505192458 | 57 | 3 | 1.0 | 4.0 | 0.00 | 0.07 | 0.07 | 86 | 1355.3 |
| 20260505191954 | 57 | 314 | 3.0 | 5.0 | 0.00 | 0.07 | 0.07 | 86 | 1355.5 |
| 20260505191453 | 58 | 305 | 3.0 | 7.0 | 0.00 | 0.07 | 0.07 | 84 | 1355.5 |
| 20260505190950 | 58 | 258 | 4.0 | 4.0 | 0.00 | 0.07 | 0.07 | 84 | 1355.5 |
| 20260505190445 | 58 | 307 | 3.0 | 7.0 | 0.00 | 0.07 | 0.07 | 83 | 1355.3 |
| 20260505185941 | 58 | 316 | 4.0 | 4.0 | 0.00 | 0.07 | 0.07 | 85 | 1355.2 |
| 20260505185438 | 58 | 8 | 4.0 | 5.0 | 0.00 | 0.07 | 0.07 | 86 | 1355.5 |
| 20260505184934 | 58 | 301 | 2.0 | 3.0 | 0.00 | 0.07 | 0.07 | 82 | 1355.2 |
| 20260505184431 | 58 | 37 | 2.0 | 3.0 | 0.00 | 0.07 | 0.07 | 84 | 1355.5 |
| 20260505183928 | 58 | 353 | 3.0 | 4.0 | 0.00 | 0.07 | 0.07 | 83 | 1355.5 |
| 20260505183425 | 57 | 5 | 2.0 | 3.0 | 0.00 | 0.07 | 0.07 | 85 | 1355.3 |
| 20260505182921 | 57 | 25 | 0.0 | 2.0 | 0.00 | 0.07 | 0.07 | 84 | 1355.2 |
| 20260505182418 | 57 | 286 | 4.0 | 4.0 | 0.00 | 0.07 | 0.07 | 84 | 1355.3 |
| 20260505181915 | 57 | 313 | 2.0 | 5.0 | 0.00 | 0.07 | 0.07 | 86 | 1355.2 |
| 20260505181412 | 57 | 306 | 4.0 | 5.0 | 0.00 | 0.07 | 0.07 | 84 | 1355.3 |
| 20260505180909 | 57 | 348 | 3.0 | 4.0 | 0.00 | 0.07 | 0.07 | 86 | 1354.9 |
| 20260505180405 | 57 | 5 | 2.0 | 4.0 | 0.00 | 0.07 | 0.07 | 86 | 1355.1 |
| 20260505175902 | 57 | 17 | 2.0 | 4.0 | 0.00 | 0.07 | 0.07 | 88 | 1354.9 |
| 20260505175358 | 56 | 335 | 3.0 | 4.0 | 0.00 | 0.07 | 0.07 | 89 | 1354.8 |
| 20260505174855 | 56 | 342 | 3.0 | 4.0 | 0.00 | 0.07 | 0.07 | 89 | 1354.9 |
| 20260505174352 | 55 | 303 | 3.0 | 5.0 | 0.00 | 0.07 | 0.07 | 89 | 1354.9 |
| 20260505173848 | 55 | 2 | 2.0 | 3.0 | 0.00 | 0.07 | 0.07 | 90 | 1354.9 |
| 20260505173345 | 55 | 316 | 3.0 | 5.0 | 0.00 | 0.07 | 0.07 | 89 | 1354.9 |
| 20260505172842 | 55 | 326 | 3.0 | 3.0 | 0.00 | 0.07 | 0.07 | 91 | 1354.7 |
| 20260505172340 | 54 | 282 | 2.0 | 5.0 | 0.00 | 0.07 | 0.07 | 90 | 1354.7 |
| 20260505171839 | 53 | 229 | 2.0 | 5.0 | 0.00 | 0.07 | 0.07 | 91 | 1354.5 |
| 20260505171336 | 54 | 274 | 2.0 | 5.0 | 0.00 | 0.07 | 0.07 | 91 | 1354.5 |
| 20260505170833 | 53 | 302 | 4.0 | 6.0 | 0.00 | 0.07 | 0.07 | 92 | 1354.7 |
| 20260505170330 | 53 | 295 | 6.0 | 6.0 | 0.00 | 0.07 | 0.07 | 92 | 1354.8 |
| 20260505165825 | 53 | 269 | 3.0 | 4.0 | 0.00 | 0.07 | 0.07 | 91 | 1354.8 |
| 20260505165320 | 54 | 334 | 3.0 | 4.0 | 0.00 | 0.07 | 0.07 | 91 | 1354.7 |
| 20260505164816 | 54 | 323 | 1.0 | 2.0 | 0.00 | 0.07 | 0.07 | 93 | 1354.7 |
| 20260505164314 | 54 | 316 | 1.0 | 2.0 | 0.00 | 0.07 | 0.07 | 93 | 1354.5 |
| 20260505163812 | 53 | 309 | 2.0 | 5.0 | 0.00 | 0.07 | 0.07 | 92 | 1354.5 |
| 20260505163310 | 53 | 267 | 3.0 | 4.0 | 0.00 | 0.07 | 0.07 | 90 | 1354.5 |
| 20260505162808 | 53 | 301 | 3.0 | 5.0 | 0.00 | 0.07 | 0.07 | 90 | 1354.4 |
| 20260505162306 | 53 | 332 | 1.0 | 4.0 | 0.00 | 0.07 | 0.07 | 93 | 1354.4 |
| 20260505161801 | 53 | 356 | 1.0 | 4.0 | 0.00 | 0.07 | 0.07 | 93 | 1354.4 |
| 20260505161258 | 53 | 261 | 3.0 | 5.0 | 0.00 | 0.07 | 0.07 | 92 | 1354.2 |
| 20260505160756 | 53 | 275 | 2.0 | 4.0 | 0.00 | 0.07 | 0.07 | 92 | 1354.2 |
| 20260505160253 | 53 | 301 | 3.0 | 5.0 | 0.00 | 0.07 | 0.07 | 92 | 1354.2 |
| 20260505153232 | 52 | 251 | 1.0 | 6.0 | 0.00 | 0.07 | 0.07 | 94 | 1353.9 |
| 20260505152729 | 51 | 298 | 4.0 | 4.0 | 0.00 | 0.07 | 0.07 | 95 | 1353.9 |
| 20260505152226 | 51 | 269 | 3.0 | 3.0 | 0.00 | 0.07 | 0.07 | 95 | 1353.9 |
| 20260505151720 | 51 | 227 | 1.0 | 3.0 | 0.00 | 0.07 | 0.07 | 96 | 1354.2 |
| 20260505151218 | 51 | 210 | 0.0 | 2.0 | 0.00 | 0.07 | 0.07 | 96 | 1353.9 |
| 20260505150714 | 51 | 292 | 3.0 | 4.0 | 0.00 | 0.07 | 0.07 | 96 | 1353.6 |
| 20260505150212 | 51 | 299 | 1.0 | 2.0 | 0.00 | 0.07 | 0.07 | 97 | 1353.8 |
| 20260505140645 | 50 | 267 | 1.0 | 3.0 | 0.00 | 0.07 | 0.07 | 99 | 1353.1 |
| 20260505140142 | 50 | 283 | 2.0 | 2.0 | 0.00 | 0.07 | 0.07 | 99 | 1353.3 |
| 20260505130106 | 50 | 197 | 0.0 | 0.0 | 0.00 | 0.07 | 0.07 | 99 | 1352.7 |
| 20260505124555 | 50 | 256 | 2.0 | 2.0 | 0.00 | 0.07 | 0.07 | 99 | 1352.7 |
| 20260505124051 | 50 | 140 | 0.0 | 1.0 | 0.00 | 0.07 | 0.07 | 99 | 1352.7 |